Torna al catalogo

STARLINK-3396

AttivoComunicazioniVLEO
NORAD 51129·PAYLOAD·🇺🇸 United States

Lanciato Jan 19, 2022 da Cape Canaveral Space Force Station

Loading…

Prossimi Passaggi (prossime 24 ore)

TLE

AggiornatoSource: CelesTrak SupGP

Epoca: Sep 14, 2026, 22:01 UTC

1 51129C 22005AB  26257.91784722 -.00032040  00000+0 -91664-3 0  2575
2 51129  53.1590 163.7689 0001428  95.8968 302.6468 15.35415971    14

Traccia STARLINK-3396 in tempo reale con AllMySat

Download on the App Store